TimeEST,TemperatureF,Dew PointF,Humidity,Sea Level PressureIn,VisibilityMPH,Wind Direction,Wind SpeedMPH,Gust SpeedMPH,PrecipitationIn,Events,Conditions,WindDirDegrees,DateUTC
12:54 AM,45.0,30.9,58,29.89,10.0,WNW,4.6,-,N/A,,Overcast,290,2013-03-02 05:54:00
1:54 AM,44.1,30.9,60,29.89,10.0,NW,6.9,-,N/A,,Overcast,310,2013-03-02 06:54:00
2:54 AM,43.0,30.9,62,29.88,10.0,WSW,4.6,-,N/A,,Overcast,250,2013-03-02 07:54:00
3:54 AM,39.9,30.0,68,29.87,10.0,West,4.6,-,N/A,,Clear,280,2013-03-02 08:54:00
4:54 AM,39.0,30.0,70,29.88,10.0,WNW,6.9,-,N/A,,Clear,290,2013-03-02 09:54:00
5:54 AM,37.9,28.9,70,29.88,10.0,WNW,4.6,-,N/A,,Clear,300,2013-03-02 10:54:00
6:54 AM,35.1,28.9,78,29.88,10.0,Calm,Calm,-,N/A,,Clear,0,2013-03-02 11:54:00
7:54 AM,39.0,28.9,67,29.91,10.0,WNW,5.8,-,N/A,,Scattered Clouds,300,2013-03-02 12:54:00
8:54 AM,42.1,30.0,62,29.90,10.0,NNW,4.6,-,N/A,,Overcast,340,2013-03-02 13:54:00
9:54 AM,45.0,30.0,56,29.88,10.0,Variable,6.9,-,N/A,,Mostly Cloudy,0,2013-03-02 14:54:00
10:54 AM,46.9,28.0,48,29.86,10.0,North,6.9,-,N/A,,Mostly Cloudy,360,2013-03-02 15:54:00
11:54 AM,48.0,27.0,44,29.84,10.0,NNW,10.4,-,N/A,,Mostly Cloudy,340,2013-03-02 16:54:00
12:19 PM,48.2,26.6,43,29.84,10.0,North,8.1,-,N/A,,Mostly Cloudy,350,2013-03-02 17:19:00
12:52 PM,50.0,26.6,40,29.83,10.0,North,8.1,-,N/A,,Mostly Cloudy,360,2013-03-02 17:52:00
12:54 PM,50.0,26.6,40,29.83,10.0,North,9.2,-,N/A,,Mostly Cloudy,360,2013-03-02 17:54:00
1:54 PM,50.0,28.0,43,29.81,10.0,West,8.1,-,N/A,,Mostly Cloudy,270,2013-03-02 18:54:00
2:54 PM,53.1,28.0,38,29.79,10.0,NW,10.4,-,N/A,,Mostly Cloudy,310,2013-03-02 19:54:00
3:54 PM,50.0,28.0,43,29.79,10.0,WNW,11.5,-,N/A,,Mostly Cloudy,290,2013-03-02 20:54:00
4:54 PM,50.0,27.0,41,29.80,10.0,NNW,8.1,-,N/A,,Mostly Cloudy,330,2013-03-02 21:54:00
5:54 PM,48.0,27.0,44,29.82,10.0,NW,6.9,-,N/A,,Mostly Cloudy,310,2013-03-02 22:54:00
6:54 PM,46.9,28.0,48,29.83,10.0,WNW,8.1,-,N/A,,Overcast,300,2013-03-02 23:54:00
7:54 PM,43.0,28.0,56,29.84,10.0,West,4.6,-,N/A,,Scattered Clouds,280,2013-03-03 00:54:00
8:54 PM,43.0,28.9,58,29.86,10.0,NNE,9.2,-,N/A,,Partly Cloudy,30,2013-03-03 01:54:00
9:54 PM,41.0,28.0,60,29.88,10.0,NNE,5.8,-,N/A,,Partly Cloudy,30,2013-03-03 02:54:00
10:54 PM,41.0,28.0,60,29.87,10.0,NNE,9.2,-,N/A,,Overcast,30,2013-03-03 03:54:00
11:54 PM,39.9,27.0,60,29.88,10.0,NNE,6.9,-,N/A,,Overcast,20,2013-03-03 04:54:00